Location: Stamford Observatory
(41.1241°N, 73.5498°W)
Time: 12:16:48
(UTC-04:00)

IRS-P3 - Visible Passes

Search period start: 05 May 2015 00:00
Search period end: 15 May 2015 00:00
Orbit: 814 x 820 km, 98.7° (Epoch: 03 May)

Date Brightness Start Highest point End Pass type
(mag) Time Alt. Az. Time Alt. Az. Time Alt. Az.
05 May 6.4 01:13:00 10° ENE 01:15:13 14° E 01:15:13 14° E visible
05 May 4.0 02:50:55 10° N 02:56:14 72° WNW 02:56:32 70° W visible
06 May 4.1 02:29:21 10° NNE 02:34:41 73° ESE 02:34:46 73° ESE visible
06 May 6.0 04:11:01 10° NNW 04:14:11 16° WNW 04:16:05 13° W visible
07 May 4.7 02:07:56 10° NNE 02:13:02 46° E 02:13:02 46° E visible
07 May 5.5 03:48:39 10° NNW 03:52:51 23° WNW 03:54:20 21° W visible
08 May 5.5 01:46:46 10° NE 01:51:16 29° E 01:51:16 29° E visible
08 May 4.9 03:26:37 10° N 03:31:27 35° WNW 03:32:34 32° W visible
09 May 6.0 01:25:56 10° NE 01:29:30 19° E 01:29:30 19° E visible
09 May 4.3 03:04:48 10° N 03:10:00 54° WNW 03:10:48 49° WSW visible
10 May 6.5 01:06:04 10° ENE 01:07:39 11° E 01:07:45 11° E visible
10 May 3.9 02:43:07 10° NNE 02:48:29 84° WNW 02:49:04 72° SSW visible
10 May 6.2 04:25:49 10° NW 04:27:49 12° WNW 04:29:30 10° WNW visible
11 May 4.2 02:21:37 10° NNE 02:26:54 62° E 02:27:18 61° ESE visible
11 May 5.8 04:02:55 10° NNW 04:06:31 18° WNW 04:08:36 14° W visible
12 May 5.0 02:00:17 10° NNE 02:05:15 39° E 02:05:32 39° ESE visible
12 May 5.3 03:40:41 10° N 03:45:09 27° WNW 03:46:50 23° W visible
13 May 5.6 01:39:12 10° NE 01:43:31 25° E 01:43:46 25° E visible
13 May 4.8 03:18:44 10° N 03:23:44 41° WNW 03:25:04 35° WSW visible
14 May 6.2 01:18:35 10° NE 01:21:40 16° E 01:22:00 16° E visible
14 May 4.2 02:56:58 10° N 03:02:15 64° WNW 03:03:18 52° WSW visible
